Temp
2 2 2 2 2 2 1 1 1 1 1 1 1 2 2 2 2 2 2 2 2 2 2 2 2 2 2 2 2 1 1 1 1 1 1 1 1 1 1 1 1 1 1 1 1 1 1 1 1 1 1 1 0 1 1 1 1 1 1 2 2 2 2 2 2 2 3 3 3 3 3 3 3 2 2 2 2 2 3 3 3 3 3 3 3 3
1 1 1 1 1 1 1 1 1 1 1 1 1 1 1 1 1 1 1 1 1 1 1 1 1 1 1 1 1 1 1 1 1 1 1 1 1 1 1 1 1 1 1 1 1 1 1 1 1 1 1 1 1 1 1 1 1 1 1 2 2 2 2 2 2 2 2 2 2 2 2 2 2 2 2 2 2 2 2 2 2 2 3 3 3 3
1 1 1 1 1 1 1 1 1 1 1 0 1 1 1 1 1 1 1 1 1 1 1 1 1 1 1 1 1 1 1 0 0 0 1 1 1 1 1 1 1 1 1 1 1 1 1 1 1 1 1 1 1 1 1 1 1 1 1 2 2 2 2 2 2 2 2 2 2 2 2 2 2 2 2 2 2 2 2 2 2 2 2 2 2 2
1 0 0 1 1 0 0 0 1 1 1 0 0 0 0 0 0 0 0 0 0 1 1 1 1 0 0 1 1 1 0 0 -0 0 0 0 0 0 0 0 0 0 0 0 0 0 0 0 0 1 1 1 1 1 1 1 1 1 1 1 2 2 2 2 2 2 2 2 2 1 1 1 1 1 1 1 1 2 2 2 2 2 2 2 2 2
0 0 0 1 1 0 0 0 0 0 0 0 0 0 0 0 0 0 0 0 0 0 1 1 1 0 0 0 0 0 0 -0 -0 -0 -0 -0 -0 -0 -0 0 0 0 0 0 0 0 0 0 0 0 0 0 1 1 1 1 1 1 1 1 1 2 1 1 1 1 1 1 1 1 1 1 1 1 1 1 1 1 1 1 1 1 1 1 1 2
0 0 1 1 0 0 0 0 0 0 0 0 0 0 0 0 0 0 0 0 0 0 0 0 0 0 0 0 -0 -0 -0 -1 -1 -1 -1 -0 -0 -0 -0 -0 -0 -0 -0 -0 -0 -0 -0 -0 -0 0 0 0 0 0 1 1 1 1 1 1 1 1 1 1 1 1 1 1 1 1 1 1 1 1 1 1 1 1 1 1 1 1 1 1 1 1
0 1 1 1 0 0 0 0 0 0 -0 -0 -0 0 0 0 0 0 0 -0 -0 -0 -0 -0 -0 -0 -0 -0 -0 -0 -0 -0 -1 -1 -1 -1 -1 -1 -0 -0 -0 -0 -0 -0 -0 -0 -0 -0 -0 -0 -0 -0 0 0 0 0 1 1 1 1 1 1 1 1 1 1 1 1 1 1 1 0 0 1 1 1 1 1 1 1 1 1 1 1 1 1
0 0 1 0 0 0 0 0 0 0 -0 -0 -0 -0 -0 -0 -0 -0 -0 -0 -0 -0 -0 -0 -0 -0 -0 -0 -0 -0 -1 -1 -1 -1 -1 -0 -0 -0 -0 -0 -0 -1 -1 -1 -1 -1 -1 -1 -1 -0 -0 -0 -0 -0 -0 -0 0 0 0 0 0 0 0 0 0 0 0 0 0 0 0 0 0 0 0 0 0 0 0 0 1 1 1 1 1 1
0 -0 0 0 0 -0 -0 -0 -0 -0 -0 -0 -0 -0 -0 -0 -0 -0 -0 -0 -0 -0 -0 -0 -0 -1 -1 -1 -1 -1 -1 -1 -1 -1 -1 -0 -0 -0 -0 -0 -0 -0 -1 -1 -1 -1 -1 -1 -1 -1 -1 -1 -1 -1 -1 -0 -0 -0 -0 -0 -0 -0 -0 -0 -0 -0 -0 -0 -0 -0 -0 -0 0 0 0 0 0 0 0 0 0 0 1 1 1 1
-0 -0 -0 -0 -0 -0 -0 -0 -0 -0 -0 -0 -0 -0 -0 -0 -0 -0 -0 -0 -0 -0 -0 -0 -0 -0 -0 -0 -0 -0 -0 -0 -0 -0 -0 -0 -0 -0 -0 -0 -0 -0 -1 -1 -1 -1 -1 -1 -1 -1 -1 -1 -1 -1 -1 -1 -1 -1 -1 -1 -1 -1 -1 -1 -1 -0 -0 -0 -0 -0 -0 -0 -0 -0 0 0 0 0 0 0 0 0 0 1 1 1
-1 -1 -1 -1 -1 -1 -0 -0 -0 -0 -0 -0 -0 -0 -0 -0 -0 -0 -0 -0 -0 -0 -0 -0 -0 -0 -0 -0 -0 -0 -0 -0 -0 -0 -0 -0 -0 -0 -0 -0 -0 -1 -1 -1 -1 -1 -1 -1 -1 -1 -1 -1 -1 -1 -1 -1 -1 -1 -1 -1 -1 -1 -1 -1 -1 -1 -1 -1 -1 -0 -0 -0 -0 -0 -0 -0 0 0 0 0 0 0 0 1 1 1
-1 -1 -1 -1 -1 -1 -1 -1 -1 -0 -0 -0 -0 -0 -0 -0 -0 -0 -0 -0 -0 -0 -0 -0 -0 -0 -0 -0 -0 -0 -0 -0 -0 -1 -1 -1 -1 -1 -1 -1 -1 -1 -1 -1 -1 -1 -1 -1 -1 -1 -1 -1 -1 -1 -1 -1 -1 -1 -1 -1 -1 -1 -1 -1 -1 -1 -1 -1 -1 -1 -1 -0 -0 -0 -0 -0 0 0 0 0 0 0 0 0 1 1
-1 -1 -1 -1 -1 -1 -1 -1 -1 -1 -0 -0 -1 -1 -1 -1 -1 -1 -0 -0 -0 -0 -0 -0 -0 -0 -0 -0 -0 -0 -1 -1 -1 -1 -1 -1 -1 -1 -1 -1 -1 -1 -1 -1 -1 -1 -1 -1 -1 -1 -1 -2 -2 -1 -1 -1 -1 -1 -1 -1 -1 -1 -1 -1 -1 -1 -1 -1 -1 -1 -1 -1 -0 -0 -0 -0 -0 0 0 0 0 0 0 0 0 1
-1 -1 -1 -1 -1 -1 -1 -1 -1 -1 -1 -1 -1 -1 -1 -1 -1 -1 -1 -1 -1 -1 -1 -1 -1 -1 -1 -1 -1 -1 -1 -1 -1 -1 -1 -1 -1 -1 -1 -1 -1 -1 -1 -2 -1 -1 -1 -2 -2 -2 -2 -2 -2 -2 -2 -2 -1 -1 -1 -1 -1 -1 -1 -1 -1 -1 -1 -1 -1 -1 -1 -1 -0 -0 -0 -0 -0 -0 0 0 0 0 0 0 0 0
-1 -1 -1 -1 -1 -1 -1 -1 -1 -1 -1 -1 -1 -1 -1 -1 -1 -1 -1 -1 -1 -1 -1 -1 -1 -1 -1 -1 -1 -1 -1 -1 -1 -1 -1 -2 -2 -2 -2 -2 -2 -2 -2 -2 -2 -2 -2 -2 -2 -2 -2 -2 -2 -2 -2 -2 -2 -2 -2 -2 -2 -2 -2 -2 -2 -1 -1 -1 -1 -1 -1 -1 -0 -0 -0 -0 -0 -0 -0 -0 -0 -0 -0 0 0 0
-1 -1 -1 -1 -1 -1 -1 -1 -1 -1 -1 -1 -1 -1 -2 -2 -2 -2 -2 -2 -2 -2 -2 -2 -2 -1 -1 -1 -1 -1 -2 -2 -2 -2 -2 -2 -2 -2 -2 -2 -2 -2 -2 -2 -2 -2 -2 -2 -2 -3 -3 -3 -3 -3 -2 -2 -3 -3 -2 -2 -2 -2 -2 -2 -1 -1 -1 -1 -1 -1 -1 -0 -0 -0 -0 -0 -0 -0 -0 -0 -0 -0 -0 -0 -0 -0
-1 -1 -1 -2 -2 -2 -2 -2 -2 -2 -2 -2 -2 -2 -2 -2 -2 -2 -2 -2 -2 -2 -2 -2 -2 -2 -1 -1 -2 -2 -2 -2 -2 -3 -3 -3 -2 -2 -2 -2 -3 -3 -3 -3 -3 -3 -3 -3 -3 -3 -3 -3 -3 -3 -3 -3 -3 -3 -3 -2 -2 -2 -2 -2 -1 -1 -1 -1 -1 -1 -1 -1 -1 -0 -0 -0 -0 -0 -0 -0 -0 -0 -0 -0 -0 -0
-1 -1 -2 -2 -2 -2 -2 -2 -2 -2 -2 -2 -2 -2 -2 -3 -3 -3 -3 -3 -3 -3 -3 -3 -3 -3 -2 -2 -2 -3 -3 -3 -3 -3 -3 -3 -3 -3 -3 -3 -3 -3 -3 -3 -3 -3 -3 -3 -3 -3 -3 -3 -3 -3 -3 -3 -3 -3 -3 -3 -3 -2 -2 -2 -2 -2 -1 -1 -1 -1 -1 -1 -1 -1 -1 -0 -0 -0 -0 -0 -0 -0 -0 -0 -0 -0
-2 -2 -2 -2 -2 -2 -2 -2 -2 -3 -3 -3 -3 -3 -3 -3 -3 -3 -3 -3 -3 -3 -3 -3 -3 -3 -3 -3 -3 -3 -3 -3 -4 -4 -4 -4 -4 -4 -4 -4 -4 -4 -4 -4 -4 -4 -4 -4 -4 -3 -3 -3 -3 -3 -3 -3 -3 -3 -3 -3 -3 -3 -2 -2 -2 -2 -2 -1 -1 -1 -1 -1 -1 -1 -1 -1 -1 -1 -1 -1 -1 -1 -1 -1 -1 -1
-2 -2 -2 -2 -2 -2 -2 -3 -3 -3 -3 -3 -3 -3 -3 -3 -3 -3 -3 -3 -4 -4 -4 -4 -4 -4 -4 -3 -3 -3 -4 -4 -4 -4 -4 -4 -4 -4 -4 -4 -4 -4 -4 -4 -4 -4 -4 -4 -4 -4 -3 -3 -3 -3 -3 -3 -3 -3 -3 -3 -3 -3 -3 -2 -2 -2 -2 -2 -1 -1 -1 -1 -1 -1 -1 -1 -1 -1 -1 -1 -1 -1 -1 -1 -1 -1
-2 -2 -2 -2 -2 -2 -2 -3 -3 -3 -3 -3 -3 -3 -3 -3 -3 -4 -4 -4 -4 -4 -4 -4 -4 -4 -4 -4 -4 -4 -4 -4 -4 -5 -5 -5 -5 -5 -5 -5 -5 -5 -5 -4 -4 -4 -4 -4 -4 -4 -3 -3 -3 -3 -3 -3 -3 -3 -3 -3 -3 -3 -3 -2 -2 -2 -2 -2 -2 -1 -1 -1 -1 -1 -1 -1 -1 -1 -1 -1 -1 -1 -1 -1 -1 -1
-2 -2 -2 -3 -3 -3 -3 -3 -3 -3 -3 -3 -3 -3 -4 -4 -4 -4 -4 -4 -4 -4 -4 -4 -4 -4 -4 -4 -4 -4 -4 -4 -5 -5 -5 -5 -5 -5 -5 -5 -5 -5 -5 -5 -4 -4 -4 -4 -4 -4 -3 -3 -3 -3 -3 -3 -3 -3 -3 -3 -3 -3 -3 -2 -2 -2 -2 -2 -2 -2 -1 -1 -1 -1 -1 -1 -1 -1 -1 -1 -1 -1 -1 -1 -1 -1
-3 -3 -3 -3 -3 -3 -3 -3 -3 -3 -3 -3 -4 -4 -4 -4 -4 -4 -4 -4 -4 -4 -4 -4 -4 -4 -4 -4 -4 -4 -4 -4 -5 -5 -5 -5 -5 -5 -5 -5 -5 -5 -5 -5 -5 -5 -4 -4 -4 -3 -3 -3 -3 -3 -3 -3 -3 -3 -3 -3 -2 -2 -2 -2 -2 -2 -2 -2 -2 -2 -1 -1 -1 -1 -1 -1 -1 -1 -1 -1 -2 -2 -2 -2 -2 -2
-3 -3 -3 -3 -3 -3 -3 -3 -3 -3 -3 -3 -4 -4 -4 -4 -4 -4 -4 -4 -4 -4 -4 -4 -4 -4 -4 -4 -4 -4 -4 -4 -5 -5 -5 -5 -5 -5 -5 -6 -6 -6 -5 -5 -5 -5 -5 -4 -3 -3 -3 -3 -3 -3 -3 -3 -3 -3 -3 -3 -3 -3 -2 -2 -2 -2 -2 -2 -2 -2 -1 -1 -1 -1 -1 -1 -1 -2 -2 -2 -2 -2 -2 -2 -2 -2
-3 -3 -3 -3 -4 -4 -4 -4 -3 -3 -3 -3 -4 -4 -4 -4 -4 -4 -4 -4 -4 -4 -4 -4 -4 -4 -4 -4 -4 -4 -4 -4 -5 -5 -5 -5 -5 -5 -6 -6 -6 -6 -6 -5 -5 -5 -5 -4 -4 -3 -4 -4 -4 -4 -4 -4 -4 -4 -4 -3 -3 -3 -3 -3 -2 -2 -2 -2 -2 -2 -2 -2 -2 -2 -2 -2 -2 -2 -2 -2 -2 -2 -2 -2 -2 -2
-4 -4 -4 -4 -4 -4 -4 -3 -3 -3 -3 -4 -4 -4 -4 -4 -4 -4 -4 -4 -4 -4 -4 -4 -4 -3 -3 -4 -4 -4 -4 -4 -5 -5 -5 -5 -5 -5 -6 -6 -6 -6 -6 -6 -6 -5 -5 -5 -4 -4 -4 -4 -4 -4 -4 -4 -4 -4 -4 -4 -4 -4 -3 -3 -3 -3 -3 -3 -2 -2 -2 -2 -2 -2 -2 -2 -2 -2 -2 -2 -2 -2 -2 -2 -2 -2
-3 -4 -4 -4 -4 -4 -4 -4 -4 -4 -4 -4 -4 -4 -4 -4 -4 -4 -4 -4 -4 -5 -5 -4 -4 -4 -4 -4 -4 -4 -4 -4 -5 -5 -5 -5 -5 -5 -6 -6 -6 -6 -6 -6 -6 -6 -5 -5 -5 -5 -5 -5 -5 -5 -5 -5 -5 -5 -5 -4 -4 -4 -4 -4 -4 -3 -3 -3 -3 -3 -3 -3 -3 -3 -3 -2 -2 -2 -2 -2 -2 -2 -2 -2 -2 -2
-3 -4 -4 -4 -4 -4 -4 -4 -4 -4 -4 -4 -4 -4 -4 -4 -5 -5 -5 -4 -4 -5 -5 -5 -4 -4 -4 -4 -4 -4 -5 -5 -5 -5 -5 -5 -5 -5 -5 -6 -6 -6 -6 -6 -6 -6 -5 -5 -5 -5 -5 -5 -5 -5 -5 -5 -5 -5 -4 -4 -4 -4 -4 -4 -4 -4 -4 -3 -3 -3 -3 -3 -3 -3 -3 -3 -3 -3 -3 -3 -2 -2 -2 -2 -2 -2
-4 -4 -4 -4 -4 -4 -4 -4 -4 -4 -4 -4 -4 -4 -5 -5 -5 -5 -4 -4 -5 -5 -5 -5 -5 -5 -5 -5 -5 -5 -5 -5 -5 -5 -5 -5 -6 -6 -5 -5 -6 -6 -6 -6 -6 -5 -5 -5 -5 -5 -5 -5 -5 -5 -5 -5 -5 -4 -4 -4 -4 -4 -4 -4 -4 -4 -4 -3 -3 -3 -3 -3 -3 -3 -3 -3 -3 -3 -3 -3 -3 -3 -3 -3 -3 -3
-4 -4 -4 -4 -4 -4 -4 -4 -4 -4 -4 -4 -4 -4 -4 -4 -4 -4 -4 -5 -5 -6 -6 -5 -5 -5 -5 -5 -5 -5 -4 -4 -5 -5 -5 -6 -5 -5 -5 -5 -6 -6 -6 -6 -5 -5 -4 -5 -5 -5 -5 -4 -4 -4 -4 -4 -4 -4 -3 -3 -3 -3 -3 -3 -3 -3 -3 -3 -3 -3 -3 -3 -3 -3 -3 -3 -3 -3 -3 -3 -3 -3 -3 -3 -3 -3
-4 -4 -4 -4 -4 -4 -5 -5 -5 -5 -4 -4 -4 -4 -4 -4 -4 -4 -5 -5 -5 -5 -6 -6 -5 -5 -5 -5 -5 -4 -4 -4 -5 -5 -6 -6 -6 -5 -6 -6 -6 -6 -6 -6 -5 -5 -4 -5 -5 -5 -5 -4 -4 -4 -4 -4 -4 -4 -3 -3 -3 -3 -3 -3 -3 -3 -3 -3 -3 -3 -3 -3 -3 -3 -3 -4 -4 -4 -4 -4 -4 -3 -3 -3 -3 -3
-5 -5 -5 -5 -5 -5 -5 -5 -5 -4 -4 -4 -4 -4 -4 -5 -5 -5 -5 -5 -5 -5 -5 -5 -5 -5 -6 -5 -5 -4 -4 -4 -5 -5 -5 -6 -6 -6 -6 -6 -6 -6 -6 -6 -6 -5 -5 -5 -5 -5 -5 -5 -5 -5 -5 -5 -4 -4 -4 -4 -4 -4 -3 -3 -3 -3 -3 -3 -3 -3 -3 -3 -3 -3 -3 -3 -4 -4 -4 -4 -4 -4 -4 -4 -4 -3
-5 -5 -5 -5 -5 -5 -5 -5 -5 -4 -4 -4 -5 -5 -5 -5 -5 -5 -5 -5 -5 -5 -5 -5 -5 -5 -6 -6 -5 -5 -5 -5 -5 -5 -6 -6 -6 -6 -6 -6 -6 -6 -6 -6 -6 -6 -5 -5 -5 -5 -5 -5 -6 -6 -6 -5 -5 -5 -5 -5 -5 -4 -4 -4 -4 -3 -3 -3 -3 -3 -3 -3 -3 -3 -3 -3 -3 -4 -4 -4 -4 -4 -4 -4 -4 -4
-5 -5 -5 -5 -5 -5 -5 -5 -5 -5 -5 -5 -5 -5 -6 -6 -6 -6 -6 -5 -5 -5 -5 -5 -6 -6 -6 -6 -6 -5 -5 -5 -5 -6 -6 -6 -6 -6 -6 -6 -6 -6 -6 -6 -6 -6 -6 -5 -5 -5 -5 -5 -5 -6 -6 -6 -6 -6 -6 -6 -5 -5 -4 -4 -4 -4 -4 -4 -3 -3 -3 -3 -3 -3 -3 -3 -3 -4 -4 -4 -4 -4 -4 -4 -4 -4
-5 -5 -5 -5 -5 -5 -5 -5 -5 -5 -5 -6 -6 -6 -6 -6 -6 -6 -6 -6 -6 -6 -6 -6 -6 -6 -6 -6 -6 -6 -6 -6 -6 -6 -6 -6 -6 -6 -6 -6 -6 -6 -6 -6 -6 -5 -5 -5 -5 -5 -5 -5 -5 -5 -6 -6 -6 -6 -6 -6 -6 -5 -5 -5 -5 -5 -4 -4 -4 -4 -3 -3 -3 -3 -3 -3 -4 -4 -4 -4 -4 -4 -4 -4 -4 -4
-5 -5 -5 -5 -5 -5 -6 -6 -6 -6 -6 -6 -6 -6 -6 -7 -7 -6 -6 -6 -6 -6 -6 -6 -6 -6 -6 -7 -7 -7 -6 -6 -6 -6 -6 -6 -6 -6 -6 -6 -6 -6 -6 -6 -6 -6 -6 -6 -6 -6 -6 -6 -5 -5 -5 -6 -6 -6 -6 -6 -6 -6 -6 -5 -5 -5 -5 -5 -4 -4 -4 -4 -4 -4 -4 -4 -4 -4 -4 -4 -5 -5 -5 -4 -4 -4
-5 -5 -5 -5 -6 -6 -6 -6 -6 -6 -6 -6 -6 -6 -7 -7 -7 -7 -7 -7 -7 -7 -7 -7 -7 -7 -7 -7 -7 -7 -7 -7 -6 -6 -6 -6 -6 -7 -7 -7 -6 -6 -6 -6 -6 -6 -6 -6 -6 -6 -6 -6 -5 -5 -5 -6 -6 -6 -6 -7 -7 -6 -6 -6 -6 -6 -5 -5 -5 -5 -4 -4 -4 -4 -4 -4 -4 -4 -4 -4 -5 -5 -5 -5 -5 -5
-5 -5 -5 -6 -6 -6 -7 -7 -7 -7 -7 -7 -7 -7 -7 -7 -7 -7 -7 -7 -7 -7 -7 -7 -7 -7 -7 -7 -7 -7 -7 -7 -7 -7 -7 -7 -7 -7 -7 -7 -7 -7 -7 -7 -7 -7 -6 -6 -6 -6 -6 -6 -6 -6 -6 -6 -6 -6 -6 -7 -7 -7 -6 -6 -6 -6 -6 -6 -5 -5 -5 -5 -5 -5 -5 -5 -5 -5 -5 -4 -4 -4 -4 -4 -4 -4
-5 -6 -6 -6 -6 -7 -7 -7 -7 -7 -7 -7 -7 -7 -7 -7 -7 -7 -7 -7 -7 -7 -7 -7 -7 -7 -7 -7 -7 -7 -7 -7 -7 -7 -7 -7 -7 -7 -7 -7 -7 -7 -7 -7 -7 -7 -7 -7 -6 -6 -6 -6 -6 -6 -6 -6 -6 -6 -7 -7 -6 -6 -6 -6 -6 -6 -6 -6 -6 -6 -5 -5 -5 -5 -5 -5 -5 -5 -5 -5 -4 -4 -4 -5 -4 -4
-6 -6 -6 -6 -7 -7 -7 -7 -7 -7 -7 -7 -7 -7 -7 -7 -7 -7 -7 -7 -8 -8 -8 -8 -8 -8 -8 -7 -7 -7 -7 -7 -7 -7 -7 -7 -7 -7 -7 -8 -8 -8 -8 -8 -7 -7 -7 -7 -7 -7 -7 -6 -6 -6 -6 -6 -7 -7 -7 -6 -6 -6 -6 -6 -6 -6 -6 -6 -6 -6 -6 -6 -6 -5 -5 -5 -5 -5 -5 -5 -5 -5 -5 -5 -5 -5
-6 -6 -7 -7 -7 -7 -7 -7 -7 -7 -7 -7 -7 -7 -7 -7 -7 -8 -8 -8 -8 -8 -8 -8 -8 -8 -8 -8 -7 -7 -7 -7 -7 -7 -7 -7 -7 -7 -8 -8 -8 -8 -8 -8 -8 -8 -7 -7 -7 -7 -7 -7 -7 -7 -7 -7 -7 -7 -7 -6 -6 -6 -6 -6 -6 -6 -6 -6 -6 -6 -6 -6 -6 -6 -6 -5 -5 -5 -5 -5 -5 -5 -5 -5 -5 -5
-7 -7 -7 -7 -7 -7 -7 -8 -8 -8 -8 -8 -8 -8 -8 -8 -8 -8 -8 -8 -8 -8 -8 -8 -8 -8 -8 -7 -7 -7 -7 -7 -7 -7 -7 -7 -8 -8 -8 -8 -8 -8 -8 -8 -8 -8 -7 -7 -7 -7 -7 -7 -7 -7 -7 -7 -7 -7 -7 -7 -7 -6 -6 -6 -6 -6 -6 -6 -6 -6 -6 -6 -6 -6 -6 -6 -5 -5 -5 -5 -5 -5 -5 -5 -5 -5
-7 -7 -7 -7 -7 -8 -8 -8 -8 -8 -8 -8 -8 -8 -8 -8 -8 -8 -8 -8 -8 -8 -8 -9 -9 -8 -8 -8 -7 -7 -7 -7 -7 -7 -8 -8 -8 -8 -8 -8 -8 -7 -7 -8 -8 -7 -7 -7 -7 -7 -7 -7 -7 -7 -7 -7 -7 -7 -7 -7 -7 -6 -6 -6 -6 -6 -6 -6 -6 -6 -6 -6 -6 -6 -6 -6 -6 -5 -5 -5 -5 -5 -5 -5 -5 -5
-7 -7 -8 -8 -8 -8 -8 -8 -8 -8 -8 -8 -8 -8 -8 -8 -8 -8 -8 -8 -8 -8 -9 -8 -8 -8 -8 -8 -8 -7 -7 -7 -7 -7 -7 -7 -7 -7 -7 -7 -7 -7 -7 -7 -7 -7 -7 -7 -7 -7 -7 -7 -7 -7 -7 -7 -7 -7 -7 -6 -6 -6 -6 -6 -6 -6 -6 -6 -6 -6 -6 -6 -6 -6 -6 -6 -6 -6 -5 -5 -5 -5 -5 -5 -5 -5
-8 -8 -8 -8 -8 -8 -8 -8 -8 -8 -8 -8 -8 -8 -8 -8 -8 -9 -8 -8 -8 -9 -9 -8 -8 -8 -8 -7 -7 -7 -7 -7 -7 -7 -7 -7 -7 -7 -7 -7 -7 -7 -7 -7 -7 -7 -7 -7 -7 -7 -7 -7 -7 -7 -7 -7 -7 -6 -6 -6 -6 -6 -6 -6 -6 -6 -6 -6 -6 -6 -6 -6 -6 -6 -6 -6 -6 -6 -6 -5 -5 -5 -5 -5 -5 -5
-8 -8 -8 -8 -8 -8 -8 -8 -8 -8 -8 -8 -8 -8 -8 -8 -9 -9 -9 -9 -8 -8 -8 -8 -8 -8 -7 -7 -7 -7 -7 -7 -7 -7 -7 -7 -7 -7 -7 -7 -7 -7 -7 -7 -7 -7 -7 -7 -7 -7 -7 -7 -7 -7 -7 -7 -6 -6 -6 -6 -6 -6 -6 -6 -6 -6 -6 -6 -6 -6 -6 -6 -6 -6 -6 -6 -6 -5 -5 -5 -5 -5 -5 -5 -5 -5
-7 -8 -8 -8 -8 -8 -8 -9 -9 -8 -8 -8 -8 -8 -8 -8 -8 -9 -9 -9 -8 -8 -8 -8 -8 -8 -7 -7 -7 -8 -8 -8 -7 -7 -7 -7 -6 -6 -6 -6 -6 -7 -7 -7 -7 -7 -7 -7 -7 -7 -7 -7 -7 -7 -6 -6 -6 -6 -6 -6 -6 -6 -6 -6 -6 -6 -6 -6 -6 -6 -6 -6 -6 -6 -6 -6 -5 -5 -5 -5 -5 -5 -5 -5 -5 -5
-8 -8 -8 -8 -8 -9 -9 -9 -9 -9 -9 -9 -9 -9 -9 -9 -9 -8 -8 -8 -8 -8 -8 -8 -8 -8 -8 -8 -8 -8 -8 -8 -7 -7 -7 -7 -6 -6 -6 -6 -6 -6 -6 -6 -7 -7 -7 -7 -7 -7 -7 -7 -7 -7 -7 -6 -6 -6 -6 -6 -6 -6 -6 -6 -6 -6 -6 -6 -6 -6 -6 -6 -6 -6 -6 -5 -5 -5 -5 -5 -5 -5 -5 -5 -5 -5
-8 -8 -9 -9 -9 -9 -9 -9 -9 -9 -9 -9 -9 -9 -9 -9 -9 -8 -8 -8 -8 -8 -8 -8 -8 -8 -8 -8 -8 -8 -8 -8 -7 -7 -7 -7 -7 -7 -7 -7 -7 -7 -7 -7 -7 -7 -7 -7 -7 -7 -7 -7 -7 -7 -7 -7 -6 -6 -6 -6 -6 -6 -6 -6 -6 -6 -6 -6 -6 -6 -6 -6 -6 -6 -6 -6 -5 -5 -5 -5 -5 -5 -5 -5 -5 -5
-8 -8 -9 -9 -9 -10 -10 -9 -9 -9 -9 -9 -9 -9 -9 -9 -9 -9 -9 -9 -9 -9 -8 -8 -8 -8 -8 -8 -8 -8 -8 -8 -7 -7 -7 -7 -7 -7 -7 -7 -7 -7 -7 -7 -7 -6 -6 -6 -6 -6 -6 -6 -7 -7 -7 -7 -7 -6 -6 -6 -6 -6 -6 -6 -6 -6 -6 -5 -6 -6 -6 -6 -6 -6 -6 -6 -6 -5 -5 -5 -5 -5 -4 -4 -5 -5
-8 -9 -9 -9 -9 -10 -10 -10 -10 -10 -9 -9 -9 -9 -9 -9 -9 -9 -9 -9 -9 -9 -9 -8 -8 -8 -8 -8 -8 -8 -8 -7 -7 -7 -7 -7 -7 -7 -7 -7 -7 -7 -7 -6 -6 -6 -6 -5 -5 -5 -5 -6 -6 -6 -6 -6 -6 -6 -6 -6 -6 -6 -6 -6 -6 -6 -5 -5 -5 -6 -6 -6 -6 -6 -6 -6 -6 -5 -5 -5 -5 -4 -4 -4 -4 -4
Height
830 830 830 830 830 830 829 829 830 829 829 829 829 829 830 830 830 830 830 830 831 831 831 831 831 831 831 831 832 832 832 832 833 833 833 834 834 834 834 834 834 834 834 834 834 834 834 834 834 834 834 834 834 834 834 834 834 835 835 835 835 835 835 835 835 835 835 835 835 835 834 834 834 834 834 834 834 834 834 834 835 835 835 835 835 835
830 830 830 830 830 830 829 830 830 830 829 829 829 829 829 829 829 830 830 830 830 830 830 830 830 830 830 831 831 831 831 832 832 833 833 833 834 834 834 834 834 834 834 834 834 834 834 834 834 834 834 834 834 834 834 834 834 834 834 834 834 834 834 834 834 834 834 834 834 834 834 834 833 833 833 833 833 834 834 834 834 834 834 834 835 835
830 830 830 830 830 830 830 830 830 829 829 829 829 829 829 829 829 829 829 829 830 830 830 830 830 830 830 830 830 830 831 831 832 832 833 833 833 833 833 833 833 834 834 834 834 834 834 834 834 834 834 834 834 834 834 834 833 833 833 833 833 833 833 833 833 833 833 833 833 833 833 833 833 833 833 833 833 833 833 833 833 833 833 833 834 834
830 830 830 830 830 830 830 830 830 829 829 829 829 829 829 829 829 829 829 829 829 829 829 829 829 829 829 830 830 830 830 831 831 832 832 832 832 832 832 833 833 833 833 833 833 834 834 834 834 833 833 833 833 833 833 833 832 832 832 832 832 833 833 833 832 832 833 833 833 832 832 832 832 832 832 832 832 833 833 832 832 832 832 833 833 833
830 830 830 830 830 830 830 830 830 829 829 829 829 829 829 828 828 828 828 828 828 828 828 829 829 829 829 829 830 830 830 830 831 831 832 832 832 832 832 832 832 833 833 833 833 833 833 833 833 833 833 832 832 832 832 832 832 832 832 832 832 832 832 832 832 832 832 832 832 832 832 832 832 832 832 832 832 832 832 832 832 832 832 832 832 833
830 830 830 830 830 830 830 830 830 829 829 829 829 829 828 828 828 828 828 828 828 828 828 828 828 829 829 829 829 829 830 830 830 830 831 831 831 831 832 832 832 832 832 832 832 832 832 832 832 832 832 831 831 831 831 831 831 831 831 831 831 831 831 831 831 831 831 831 831 831 831 831 831 831 831 831 831 831 831 831 831 831 831 832 832 832
830 830 830 830 830 830 830 830 830 830 829 829 829 829 829 828 828 828 828 828 828 828 828 828 828 829 829 829 829 829 830 830 830 830 830 830 831 831 831 832 832 832 832 832 832 831 831 831 831 831 831 830 830 830 830 830 830 830 830 830 830 830 830 830 830 830 830 830 830 830 830 830 830 830 830 830 830 830 830 830 830 830 831 831 831 831
830 830 830 830 830 830 830 830 830 830 830 829 829 829 829 829 829 828 828 828 828 828 828 829 829 829 829 829 829 829 830 830 830 830 830 830 830 831 831 831 831 831 831 831 831 831 830 830 830 830 830 830 830 829 829 829 829 829 829 829 829 829 829 829 829 829 829 829 829 829 829 829 829 830 830 830 829 829 829 830 830 830 830 830 830 830
830 830 831 831 831 831 831 830 830 830 830 830 829 829 829 829 829 829 829 829 829 829 829 829 829 829 829 829 829 829 830 830 830 830 830 830 830 830 830 830 830 830 830 830 830 830 830 829 829 829 829 828 828 828 828 828 828 828 827 827 827 827 828 828 828 828 828 828 828 828 828 828 828 828 829 829 828 828 829 829 829 829 829 829 829 830
830 831 831 831 831 831 831 831 830 830 830 830 830 830 830 829 829 829 829 829 829 829 829 829 829 829 829 829 829 829 830 830 830 830 830 830 830 830 830 830 830 830 829 829 829 828 828 828 828 827 827 827 827 826 826 826 826 826 826 826 826 826 826 826 826 827 827 827 827 827 827 827 827 827 827 827 827 828 828 828 828 828 828 828 828 829
831 831 831 831 831 831 831 831 831 830 830 830 830 830 830 830 829 829 829 829 829 829 829 829 829 829 829 829 829 829 829 829 829 829 829 829 829 829 829 829 829 829 828 828 828 827 827 826 826 826 825 825 825 825 824 824 824 824 824 824 825 825 825 825 825 825 825 826 826 826 826 826 826 826 826 826 827 827 827 827 827 827 827 827 827 828
831 831 831 831 831 831 831 831 831 830 830 830 830 830 830 830 830 829 829 829 829 829 829 829 829 829 829 829 829 829 829 829 829 829 829 829 829 829 828 828 828 827 827 827 827 826 826 825 825 824 824 823 823 823 823 823 822 823 823 823 823 823 824 824 824 824 825 825 825 825 825 825 825 825 825 825 826 826 826 826 826 826 826 826 826 827
831 831 831 832 831 831 831 831 831 831 830 830 830 830 830 830 830 830 830 829 829 829 829 829 829 829 829 829 829 829 829 829 829 829 829 828 828 828 827 827 827 826 826 826 825 825 825 825 824 823 822 822 821 821 821 821 821 821 821 822 822 822 822 823 823 823 823 823 824 824 824 824 824 825 825 825 825 825 825 825 825 825 825 825 825 825
831 831 832 832 832 831 831 831 831 831 831 830 830 830 830 830 830 830 830 830 829 829 829 829 829 829 829 829 829 828 828 828 828 828 828 828 827 827 827 826 826 825 825 825 825 824 824 823 822 821 821 820 820 820 820 820 820 820 820 820 821 821 821 821 821 822 822 822 822 823 823 823 823 823 824 824 824 824 824 824 824 824 824 824 824 825
831 831 832 832 832 832 831 831 831 831 831 831 831 830 830 830 830 830 830 830 829 829 829 829 829 829 829 828 828 828 828 828 828 827 827 827 826 826 826 825 825 824 824 824 823 823 822 822 821 820 820 819 819 819 819 819 819 819 820 820 820 820 820 820 820 821 821 821 821 822 822 822 822 822 822 823 823 823 823 823 823 823 823 823 823 823
831 831 832 832 832 832 832 832 831 831 831 831 831 831 830 830 830 830 830 830 829 829 829 829 829 828 828 828 828 828 827 827 827 827 826 826 825 825 825 825 824 823 823 822 822 821 821 820 820 819 819 818 818 818 818 819 819 819 819 819 819 820 820 820 820 820 820 820 820 821 821 821 821 821 821 821 821 821 821 821 821 821 821 821 821 821
832 832 832 832 832 832 832 832 832 831 831 831 831 831 831 830 830 830 830 830 829 829 829 829 829 829 828 828 827 827 827 827 826 826 825 825 825 824 824 824 823 822 821 821 821 820 820 819 819 818 818 818 818 818 818 818 818 818 819 819 819 819 819 819 819 819 819 820 820 820 820 820 820 820 820 820 820 820 820 820 820 820 820 820 820 820
832 832 832 832 832 832 832 832 831 831 831 831 831 831 830 830 830 830 830 830 829 829 829 829 829 829 829 828 827 827 827 826 826 825 825 824 824 823 823 822 822 821 820 820 820 819 819 818 818 817 817 817 817 817 817 817 817 817 817 817 817 817 818 818 818 818 818 818 818 819 819 819 819 819 819 819 819 819 819 819 819 819 819 819 819 819
832 832 832 832 832 832 832 831 831 831 831 831 831 830 830 830 830 830 830 829 829 829 829 829 829 829 828 828 827 827 826 826 825 825 824 823 823 822 822 821 821 820 820 819 819 819 818 818 817 817 816 816 816 816 816 816 816 816 816 816 816 816 816 816 816 817 817 817 817 817 817 818 818 818 818 818 818 818 818 818 818 818 818 818 818 817
831 831 832 832 832 832 831 831 831 831 831 831 830 830 830 830 830 830 829 829 829 829 829 829 828 828 828 827 827 826 826 825 825 824 824 823 822 821 821 820 820 819 819 818 818 818 817 817 816 816 815 815 815 815 815 815 815 815 815 815 815 815 815 815 815 815 815 815 816 816 816 816 816 816 816 816 816 816 816 816 816 816 816 816 816 816
831 831 831 831 831 831 831 831 831 831 830 830 830 830 830 830 829 829 829 829 828 828 828 828 828 827 827 827 826 826 825 825 825 824 823 822 821 820 820 820 819 819 818 817 817 817 816 816 815 815 815 814 814 814 814 814 813 813 813 813 813 813 813 813 814 814 814 814 815 815 815 815 815 815 815 815 815 815 815 815 815 815 815 815 815 815
831 831 831 831 831 831 831 831 830 830 830 830 830 830 830 829 829 829 829 828 828 828 827 827 827 826 826 826 825 825 825 824 824 823 822 821 820 819 819 819 819 818 817 817 816 816 815 815 814 814 814 813 813 812 812 812 812 812 812 812 812 812 812 812 812 812 813 813 813 813 813 814 814 814 814 814 814 814 814 814 814 813 813 813 813 813
831 831 831 831 830 830 830 830 830 830 830 830 830 829 829 829 829 828 828 828 827 827 826 826 826 825 825 825 824 824 824 824 823 823 822 821 820 819 818 818 818 817 816 816 815 815 814 814 813 813 812 812 811 811 810 810 810 810 810 811 811 811 811 811 811 811 811 811 812 812 812 812 812 813 813 813 812 812 812 812 812 812 812 812 812 811
830 830 830 830 830 830 830 830 830 830 830 829 829 829 829 828 828 828 827 827 826 826 825 825 825 824 824 823 823 823 823 823 822 822 821 820 819 818 818 818 817 817 816 815 815 814 813 812 812 811 811 810 810 809 809 809 809 810 810 810 810 810 810 810 810 810 810 810 811 811 811 811 811 811 811 811 811 811 811 811 811 810 810 810 810 810
830 830 830 830 830 830 830 830 830 829 829 829 828 828 828 827 827 826 826 826 825 825 825 824 824 823 823 822 822 822 822 822 821 821 821 820 819 818 817 817 817 816 815 814 814 813 812 811 810 810 809 809 808 808 808 808 809 809 809 809 809 809 809 809 809 810 810 810 810 810 810 810 810 810 810 810 809 809 809 809 809 809 809 809 809 808
829 829 829 829 829 829 829 829 829 829 829 828 828 827 827 826 826 825 825 825 825 824 824 824 823 822 822 822 821 821 821 821 820 820 820 820 819 818 817 816 816 815 815 814 813 812 811 810 810 809 809 808 807 807 807 807 808 808 808 808 807 807 807 807 808 808 808 808 808 808 808 808 808 808 808 808 808 808 808 808 808 808 808 807 807 807
829 829 829 829 829 829 828 828 828 828 828 828 827 827 826 825 825 824 824 824 824 824 823 823 822 821 821 821 820 820 820 820 820 820 819 819 819 818 817 816 816 815 814 813 812 811 811 810 809 808 808 807 807 807 807 807 807 807 807 806 806 806 806 806 806 805 806 806 806 806 806 806 806 806 806 806 806 807 807 807 807 806 806 806 806 805
828 828 828 828 828 827 827 827 827 827 826 826 826 826 825 825 824 823 823 822 822 823 823 822 821 821 820 820 820 820 819 819 819 819 818 818 818 817 816 816 816 815 814 813 811 810 810 809 808 808 807 807 806 806 806 806 806 806 806 806 805 805 805 805 805 805 805 805 805 805 805 805 805 805 805 805 805 805 805 805 805 805 805 805 804 804
827 827 827 827 827 826 826 826 825 825 825 825 825 825 824 824 823 822 822 821 821 821 821 821 821 820 820 820 819 819 818 818 818 818 818 818 817 816 816 816 815 815 814 812 810 809 808 808 808 807 807 806 806 806 806 806 806 806 805 805 805 805 805 804 804 804 804 804 804 804 804 804 804 804 804 804 804 804 804 804 804 804 803 803 803 802
826 826 826 826 826 825 825 825 824 824 824 823 823 823 823 822 821 821 820 820 820 820 820 820 820 820 820 819 819 818 817 817 817 817 817 817 816 816 815 815 815 815 814 813 811 809 807 807 807 807 806 806 806 806 806 806 805 805 805 805 804 804 804 803 803 803 803 803 803 802 802 802 802 802 802 802 802 802 802 802 802 802 802 801 801 800
825 825 825 825 825 824 824 823 823 822 822 822 821 821 820 820 820 819 819 819 819 819 819 819 819 819 819 819 818 817 817 816 816 816 816 816 816 815 815 815 815 814 814 814 813 810 808 806 806 806 806 806 806 805 805 805 805 804 804 803 803 802 802 802 802 801 801 801 801 801 801 801 801 800 800 800 800 800 800 800 801 801 800 800 800 799
824 824 824 824 823 823 822 822 821 821 820 820 819 819 819 818 818 818 818 818 818 818 818 818 818 818 818 818 818 817 816 816 816 816 816 816 815 815 815 815 815 814 814 814 814 813 810 807 806 805 805 805 805 804 804 803 803 803 802 802 801 801 801 801 800 800 800 800 800 799 799 799 799 799 799 799 799 798 799 799 799 799 799 798 798 797
823 823 823 822 822 821 821 820 820 819 819 818 818 817 817 817 817 817 817 817 817 817 817 817 816 816 817 817 816 816 816 816 816 816 815 815 815 815 814 814 814 814 813 813 813 812 811 809 807 805 805 804 804 803 802 802 802 801 801 801 800 800 800 800 799 799 798 798 798 798 798 798 797 797 797 797 797 797 797 797 797 797 797 797 796 796
822 821 821 820 820 820 819 819 818 818 817 817 816 816 816 816 816 816 816 816 816 816 816 816 816 816 816 816 815 815 815 815 815 815 815 815 815 814 814 814 813 813 812 812 811 811 810 809 807 805 804 803 803 802 802 801 801 800 800 800 799 799 798 798 798 797 797 796 796 796 796 796 796 796 795 795 795 795 795 795 795 795 795 795 795 795
820 820 820 819 819 818 818 817 817 816 816 816 816 815 815 815 815 815 815 815 815 815 815 815 815 815 815 815 815 815 815 815 815 815 815 814 814 814 813 813 813 812 812 811 810 810 809 807 807 806 805 803 801 801 801 800 800 800 799 799 798 798 797 797 796 796 795 795 795 795 795 795 794 794 794 794 794 794 794 793 793 794 794 794 794 793
819 818 818 818 817 817 816 816 816 815 815 815 815 815 815 815 815 815 815 815 815 815 814 814 814 814 814 814 814 813 813 813 814 814 814 814 813 813 813 812 812 812 811 810 810 809 808 807 806 805 805 803 801 800 800 800 799 799 798 798 797 796 796 795 795 795 794 794 794 793 793 793 793 793 792 792 792 792 792 791 791 791 791 791 791 791
817 817 817 816 816 815 815 815 815 815 815 815 815 814 814 814 814 814 814 814 814 814 813 813 813 813 813 812 812 812 812 812 812 812 812 812 812 812 811 811 811 811 810 810 809 808 808 806 805 804 803 803 801 800 799 799 798 798 797 797 796 795 795 794 794 793 793 793 792 792 792 792 791 791 791 790 790 790 790 790 790 789 789 789 789 789
816 815 815 815 815 814 814 814 814 814 814 814 814 814 813 813 813 813 813 813 813 813 812 812 812 812 811 811 811 810 810 810 810 810 810 810 810 810 810 810 809 809 809 809 808 808 807 806 805 803 802 801 800 800 799 799 798 797 796 796 795 795 794 793 793 792 792 792 791 791 791 790 790 790 789 789 789 788 788 788 788 787 787 787 786 786
814 814 814 814 814 813 813 813 813 813 813 813 813 812 812 812 812 812 812 812 812 811 811 811 810 810 810 810 810 809 809 809 808 808 809 809 809 808 808 808 808 808 808 807 807 807 806 805 804 803 802 800 800 799 798 798 797 797 796 795 794 794 793 792 792 791 791 790 790 790 790 789 789 789 788 788 787 787 786 786 786 785 785 785 785 784
813 813 813 813 812 812 812 812 812 811 811 811 811 811 811 810 810 810 810 810 810 810 810 809 809 809 809 808 808 808 807 807 807 807 807 807 807 807 807 806 806 806 806 806 806 805 805 804 803 802 801 800 799 798 797 797 797 796 795 794 793 792 792 792 791 790 790 790 789 789 788 788 787 787 787 786 786 785 785 785 784 784 784 784 783 782
812 812 811 811 811 811 811 811 810 810 810 810 810 810 809 809 809 809 809 809 809 809 808 808 808 807 807 807 806 806 806 805 805 805 805 805 805 805 805 805 805 805 805 805 804 804 804 803 802 801 800 800 799 798 797 796 795 795 795 794 792 791 791 790 790 790 789 788 788 788 787 787 786 786 785 785 784 784 783 783 783 782 782 782 781 781
811 810 810 810 810 810 810 810 810 809 809 809 809 808 808 808 808 808 808 808 807 807 807 807 806 806 805 805 805 805 805 804 804 804 804 804 804 804 804 804 804 804 803 803 803 802 802 801 801 800 800 799 798 797 795 795 794 794 794 793 791 790 789 789 788 788 788 787 787 786 786 785 785 785 784 783 783 782 782 781 781 781 780 780 780 780
810 810 809 809 809 809 809 808 808 808 808 808 808 807 807 807 807 807 807 807 807 806 806 806 806 805 805 804 804 803 803 803 803 803 802 802 802 802 802 802 802 802 802 802 801 801 800 800 800 799 798 798 797 796 795 794 793 792 792 791 791 790 789 787 787 787 787 786 785 785 785 784 784 783 783 782 781 780 780 780 779 779 779 778 778 778
809 809 808 808 808 808 807 807 807 807 807 807 807 806 806 806 806 806 806 806 806 805 805 805 805 805 804 803 803 802 802 802 802 801 801 801 801 801 801 801 801 801 800 800 800 800 799 798 798 797 797 797 796 795 794 793 791 791 790 790 790 789 788 786 786 785 785 785 784 784 784 783 783 782 781 780 780 779 778 778 777 777 776 776 776 776
808 807 807 807 807 806 806 806 806 806 806 806 806 805 805 805 805 805 805 805 805 805 805 805 804 804 803 803 802 802 801 801 801 800 800 800 800 800 800 800 800 799 799 799 798 798 798 797 796 796 796 795 795 794 793 791 790 789 789 788 788 787 786 785 785 784 784 783 783 782 782 782 781 780 780 779 778 777 777 776 775 775 774 774 774 773
807 806 806 806 805 805 805 805 805 805 805 805 805 805 805 805 805 804 804 804 804 804 804 804 803 803 802 802 801 801 801 800 800 800 800 799 799 799 799 799 798 798 798 797 797 796 796 795 795 795 795 794 793 792 791 790 789 788 787 786 786 785 784 784 783 783 782 782 781 781 780 780 780 779 778 777 776 776 775 775 774 773 773 772 772 771
805 805 805 805 804 804 804 804 804 804 804 804 804 804 804 804 804 804 803 803 803 803 803 803 803 802 802 801 800 800 800 800 799 799 799 798 798 798 798 797 797 797 796 796 795 795 794 794 794 793 793 792 791 790 789 789 788 787 786 785 785 784 783 782 781 781 780 780 780 779 779 779 779 778 777 776 775 774 773 773 772 772 771 770 770 769
805 804 804 803 803 803 803 802 802 803 803 803 803 803 803 803 803 803 802 802 802 802 802 802 802 801 801 800 800 799 799 799 798 798 798 797 797 797 796 796 796 795 795 795 794 793 793 792 792 791 791 791 790 788 787 786 786 786 785 784 784 783 781 780 780 779 779 779 778 778 778 778 777 777 776 775 773 772 771 770 770 770 769 769 768 768
804 803 803 802 802 802 801 801 801 801 801 801 801 801 801 801 801 801 801 801 801 801 801 801 800 800 800 799 799 798 798 798 797 797 797 796 796 796 795 795 795 794 794 793 792 792 791 790 790 789 789 789 788 787 785 785 785 784 784 783 782 781 780 779 778 778 778 777 777 776 776 776 776 775 775 774 772 770 769 768 768 767 767 767 766 765
802 802 802 801 801 801 800 800 800 800 800 800 800 800 800 800 800 800 800 800 800 800 800 800 800 799 799 798 798 797 797 797 796 796 796 795 795 795 795 794 794 793 793 792 791 790 789 788 787 786 786 786 785 785 784 783 783 782 782 781 781 780 779 778 777 777 777 776 776 775 775 775 775 774 774 773 771 769 767 766 765 765 765 765 765 764
801 801 801 800 800 800 799 799 799 799 799 799 799 799 799 798 798 798 799 799 799 799 799 798 798 798 798 797 797 796 796 796 795 795 795 795 794 794 794 793 793 793 792 791 790 789 788 787 786 785 784 784 783 783 783 782 782 781 780 780 779 779 778 777 776 776 775 775 775 774 774 773 773 773 772 771 770 768 766 764 763 763 763 763 763 762
Wind_Speed
4 5 5 5 5 6 6 6 5 3 2 3 4 4 4 4 4 4 4 5 5 5 6 6 7 8 8 9 9 9 10 10 11 11 10 9 8 8 7 7 6 6 6 6 7 7 7 6 6 6 6 5 5 5 6 6 7 7 8 9 9 9 10 10 10 11 11 10 10 9 9 8 8 8 8 8 8 8 8 8 9 9 10 10 10 10
5 5 5 5 5 6 5 5 4 4 3 3 4 4 5 4 4 4 5 5 5 5 6 6 7 7 6 6 7 7 8 9 9 8 7 7 7 7 6 6 6 6 6 6 6 6 6 5 5 5 6 6 7 7 7 8 8 8 9 9 9 9 10 10 10 10 10 10 10 9 9 8 8 8 8 8 8 8 8 9 9 10 10 11 11 11
5 5 5 5 5 5 5 5 4 4 2 2 3 4 5 5 5 6 6 6 7 7 7 6 6 5 5 5 5 6 7 6 6 5 5 6 6 6 6 5 5 5 6 6 5 5 4 4 4 5 6 7 7 8 8 9 9 9 9 9 10 10 10 10 10 10 10 10 10 9 9 8 8 8 8 8 8 9 9 9 9 9 10 11 11 11
5 5 5 5 5 4 4 4 4 3 2 1 2 3 4 5 6 6 7 7 7 6 6 5 4 4 4 4 4 5 5 4 3 3 4 5 5 5 4 4 4 5 5 4 4 4 4 4 5 6 7 7 8 8 9 9 9 9 10 10 10 10 10 10 10 10 10 9 9 9 8 8 9 8 9 9 9 9 9 9 9 9 10 10 10 10
4 5 5 5 5 5 4 4 3 2 1 1 1 1 2 3 4 5 5 5 4 4 3 3 3 3 3 3 3 3 3 2 2 3 3 4 4 3 3 3 3 3 3 3 3 3 4 5 6 7 7 8 8 9 9 9 9 9 10 10 9 9 9 9 10 9 8 8 8 8 8 8 9 9 9 9 9 9 9 9 9 9 10 10 10 10
4 4 5 5 5 5 4 4 3 3 3 2 2 1 1 1 1 1 2 2 3 3 3 3 3 3 3 2 2 2 2 3 4 4 4 4 3 3 2 2 2 2 2 2 3 4 5 6 7 7 8 9 9 9 9 9 9 9 9 9 9 8 8 8 8 8 8 8 8 8 8 9 9 9 9 9 9 9 9 9 9 9 10 10 10 10
4 4 4 5 4 4 4 3 4 4 5 5 5 4 4 4 3 3 4 4 4 4 4 3 3 3 2 2 1 1 1 2 3 4 4 4 4 3 2 2 1 1 2 3 4 5 6 7 8 9 9 10 10 10 9 9 9 9 9 9 9 8 8 8 8 8 8 8 9 9 9 9 9 10 10 10 10 10 10 10 10 10 10 10 10 10
4 4 4 4 4 3 3 3 4 4 5 6 6 6 6 5 5 5 5 5 5 4 4 3 3 2 2 1 1 1 1 1 2 3 4 5 5 5 4 4 4 4 4 4 5 7 8 9 10 10 11 11 11 11 11 10 10 10 10 10 10 10 10 9 9 9 9 9 9 9 10 10 10 10 11 11 11 11 10 10 10 10 10 10 10 10
4 4 4 4 4 4 4 4 4 4 5 5 5 5 5 5 5 5 5 5 4 4 4 3 3 2 2 1 1 1 2 2 3 4 5 6 6 6 6 7 7 7 7 7 8 9 10 11 12 12 12 12 12 12 12 12 12 12 12 12 12 11 11 11 10 10 10 10 10 10 11 11 11 11 11 11 11 11 11 11 10 10 10 10 10 10
5 5 4 4 3 3 4 3 3 4 4 4 4 4 4 4 4 4 4 4 4 3 3 3 3 2 2 3 3 3 3 4 5 5 6 6 7 7 8 8 9 9 10 10 11 13 14 14 15 15 15 14 14 13 13 13 13 13 13 13 13 12 12 12 12 12 11 12 12 12 12 12 12 12 12 12 12 11 11 11 11 11 10 10 10 11
5 4 4 3 3 3 3 2 3 3 3 3 3 3 3 4 4 5 4 4 3 3 3 3 3 3 3 3 3 4 4 5 5 6 7 7 8 8 9 10 11 11 12 13 14 15 16 16 17 17 17 17 16 15 14 15 15 15 15 15 15 14 14 14 14 14 14 14 14 14 14 13 13 13 12 12 11 11 11 11 11 11 11 11 11 11
4 3 3 3 3 2 2 2 2 2 3 3 3 3 4 4 4 5 5 4 3 3 3 3 3 3 3 4 4 4 5 5 6 7 7 8 9 10 11 12 12 13 14 15 16 16 16 17 18 18 18 18 18 17 17 17 17 16 16 16 16 16 16 16 16 16 16 16 15 15 14 14 13 12 12 11 11 11 11 11 11 10 11 11 11 11
4 3 3 3 3 3 3 3 3 3 3 4 4 4 4 4 4 4 4 4 4 4 3 4 4 4 4 5 5 6 6 7 7 7 8 9 10 11 12 13 14 15 15 16 16 17 17 18 19 19 18 18 18 18 17 17 16 16 16 16 16 16 16 16 16 16 16 16 15 14 13 13 12 12 11 11 11 11 10 10 10 10 11 11 11 11
5 4 4 5 5 5 4 4 5 5 5 5 5 5 4 4 4 4 4 3 3 4 4 4 5 5 6 6 6 7 7 8 8 9 9 10 11 12 13 14 15 16 16 18 18 19 19 20 19 19 18 17 17 17 16 16 15 15 15 14 14 14 14 14 14 14 14 14 13 13 13 12 12 11 11 11 11 10 10 10 11 11 11 11 11 11
6 5 5 6 6 6 6 6 6 6 5 5 4 4 4 4 4 4 4 4 4 5 6 6 6 6 6 7 7 7 7 8 8 9 10 11 12 13 14 15 17 18 19 20 21 21 20 19 18 17 16 15 15 15 15 15 14 14 13 13 12 12 12 12 12 12 12 12 12 12 12 12 12 11 11 11 11 11 11 11 11 11 11 11 12 12
6 6 6 6 6 6 5 5 5 5 5 4 4 4 4 4 4 5 5 5 6 6 7 7 7 7 6 6 6 6 7 7 8 9 11 13 13 14 15 17 19 21 21 21 21 20 18 16 15 14 14 13 13 13 13 12 12 11 11 11 11 11 11 11 11 11 12 12 12 12 12 12 12 11 11 11 11 11 11 11 11 12 12 12 12 12
5 5 5 5 5 5 4 4 4 4 4 4 4 4 4 5 5 5 5 6 6 6 6 6 5 5 5 6 6 6 7 9 10 12 14 15 17 18 18 19 20 21 21 20 18 16 14 12 11 11 11 11 11 11 11 10 10 10 10 10 11 11 11 11 11 12 12 12 12 12 12 12 12 12 12 12 12 12 12 12 12 12 12 12 12 12
4 4 3 3 3 3 3 3 3 3 4 4 5 5 5 5 5 6 6 6 6 5 5 5 5 4 5 6 6 8 9 11 13 15 15 15 17 18 19 19 18 18 18 16 14 12 10 9 9 9 10 10 10 11 11 10 10 10 11 11 11 12 12 12 12 12 12 12 12 12 12 12 12 12 12 12 12 12 12 12 12 12 12 12 12 12
2 2 2 2 2 2 2 3 3 3 4 4 5 5 5 5 5 5 5 5 5 5 5 5 5 5 6 6 8 10 11 12 14 15 14 13 14 16 17 16 15 14 14 13 12 10 9 9 9 9 10 10 11 11 12 12 12 12 12 13 13 13 13 13 13 13 13 13 13 13 13 13 13 13 13 13 13 13 13 13 13 13 13 13 13 13
1 1 1 1 1 1 1 2 2 3 4 4 5 5 5 5 5 5 5 6 6 6 6 6 6 6 7 8 10 11 13 14 15 14 13 12 13 14 15 13 12 13 13 12 11 10 10 10 10 10 11 11 12 12 13 13 14 14 14 14 14 14 14 14 14 14 14 14 13 13 13 13 13 13 13 13 13 13 13 13 13 13 13 13 13 13
1 1 1 1 0 1 1 1 2 3 4 5 5 5 5 6 6 6 6 7 7 8 8 8 8 8 9 10 12 13 14 15 14 13 12 12 12 13 13 12 11 12 13 13 12 11 11 11 12 11 11 12 12 13 13 14 15 15 15 15 16 15 15 15 15 15 14 14 14 14 14 14 14 14 13 13 13 13 13 13 13 13 13 13 14 14
1 1 1 1 0 0 1 1 3 3 4 5 6 6 7 7 8 8 8 9 9 10 10 10 10 11 13 14 14 14 14 13 13 13 11 10 10 11 12 12 12 13 14 14 13 12 12 12 12 12 12 12 12 13 14 14 15 15 16 16 16 16 16 16 15 15 15 15 15 14 14 14 14 14 13 13 13 13 13 13 13 13 13 14 14 14
1 1 2 2 1 1 1 2 3 4 5 5 6 7 7 8 9 9 10 11 11 12 12 13 14 15 16 16 15 14 12 11 11 11 10 9 8 9 12 12 13 14 14 14 14 14 14 15 14 14 13 12 12 13 13 14 14 14 14 14 15 15 15 15 15 15 14 14 14 14 14 14 14 13 13 13 13 13 13 13 13 13 14 14 15 15
2 3 3 4 3 3 2 2 3 4 5 6 6 7 8 9 10 11 12 13 13 14 15 15 16 16 16 15 13 12 11 10 10 10 8 8 8 9 11 13 13 13 13 14 15 16 17 18 17 15 13 11 11 12 12 12 12 11 10 10 10 10 11 11 11 12 12 12 12 12 12 12 12 12 12 12 12 13 13 13 14 14 14 15 15 15
3 4 5 4 4 3 3 3 3 4 5 6 8 9 10 11 12 12 13 14 15 15 15 14 14 13 12 10 9 9 9 9 9 9 8 8 9 10 11 12 13 13 12 14 17 18 19 19 18 14 11 9 9 9 10 9 7 6 5 5 6 6 6 7 7 8 9 9 10 10 10 11 11 11 12 12 13 13 13 14 14 14 15 15 15 16
2 3 3 2 2 2 3 3 4 4 5 7 9 11 12 12 13 14 14 15 15 14 13 11 10 10 10 9 8 8 9 9 9 9 8 8 9 10 10 11 12 13 14 16 18 19 19 18 16 12 8 6 6 6 6 6 5 4 4 4 5 5 5 6 6 7 8 8 9 9 10 10 11 11 12 13 13 13 14 14 14 14 15 15 16 16
2 2 2 2 2 3 4 5 6 6 7 8 9 10 12 13 14 14 14 15 14 13 10 9 10 10 9 8 8 8 8 8 9 10 10 9 8 8 9 10 12 13 15 16 16 16 15 15 13 10 6 4 4 4 4 4 4 4 5 6 6 7 7 8 8 9 9 9 9 10 10 11 11 12 13 13 13 14 14 14 14 14 15 15 16 16
4 4 4 5 6 7 8 9 10 11 11 11 10 10 12 13 14 13 13 14 14 12 9 9 9 8 8 7 8 8 9 9 10 11 11 9 8 8 9 10 11 13 14 14 15 14 13 12 11 8 4 3 3 3 3 3 4 5 6 7 8 9 10 10 11 11 11 11 11 11 11 12 12 12 13 13 14 14 14 14 14 14 15 15 15 15
6 7 7 8 9 10 11 12 13 13 13 13 13 13 13 14 14 14 14 14 13 11 9 9 9 8 8 8 9 9 9 8 9 10 9 7 7 8 9 10 11 12 13 13 13 13 12 11 9 6 3 3 3 3 3 4 5 7 8 9 10 11 12 13 13 13 13 13 13 13 13 13 13 13 13 13 14 14 14 14 14 14 14 15 15 15
7 8 9 10 11 12 13 14 15 15 15 15 15 15 15 15 15 15 14 13 12 11 9 9 8 8 8 8 7 7 6 6 6 6 5 5 6 7 9 9 9 10 11 11 10 9 9 10 8 5 2 3 4 5 6 8 10 12 13 13 12 12 13 13 14 15 15 16 15 15 15 15 15 15 14 14 14 14 14 14 14 14 14 14 14 15
9 10 11 12 13 14 15 16 16 17 17 17 16 15 14 13 12 11 11 10 11 11 11 10 9 8 7 6 4 3 3 4 4 4 5 5 5 7 8 8 8 9 9 8 7 6 5 7 7 6 6 7 10 12 13 15 16 16 15 13 11 10 10 11 12 14 15 16 17 17 17 17 17 17 17 16 16 15 15 14 14 13 14 14 14 14
11 12 13 13 14 15 16 17 18 18 17 16 14 12 11 10 9 9 9 9 9 10 10 10 10 9 8 6 5 4 4 5 6 6 7 7 8 9 9 8 8 9 9 7 6 5 3 5 8 10 11 12 14 16 18 18 16 15 13 12 10 9 8 9 10 11 13 15 16 17 18 18 18 18 18 18 17 16 16 15 14 13 13 13 13 14
12 13 14 15 16 17 18 18 18 17 15 13 10 8 7 7 7 7 7 7 7 7 7 8 8 8 8 7 7 7 7 7 8 8 9 8 8 9 9 8 8 9 9 8 8 8 7 9 11 13 13 13 13 13 15 16 15 14 13 12 12 11 11 10 11 11 12 13 14 15 16 17 17 17 17 17 17 16 15 14 14 13 12 12 13 13
14 15 16 17 18 18 18 18 16 14 12 9 6 5 5 5 5 6 6 6 6 6 6 5 5 6 6 6 7 7 8 7 7 7 8 8 8 8 9 9 9 9 9 9 9 10 10 12 12 13 13 13 13 12 12 13 13 13 13 13 14 15 15 15 14 14 13 12 12 13 13 13 14 14 14 14 14 14 14 14 13 13 12 12 13 13
16 17 17 18 18 18 17 15 13 11 8 6 4 4 5 5 5 5 5 6 6 6 6 6 6 6 7 7 7 8 9 9 9 9 10 10 10 10 10 10 10 9 9 10 10 10 10 12 12 13 13 14 13 12 12 11 11 12 13 14 16 17 17 17 15 14 12 11 10 10 10 10 11 11 12 12 13 13 13 13 12 12 12 12 13 14
18 18 18 17 16 15 13 12 10 7 5 4 4 5 6 7 7 6 6 7 7 8 8 8 8 8 9 9 10 11 12 13 13 12 12 13 14 14 12 12 11 10 9 10 10 10 10 12 13 13 13 13 13 12 11 11 11 12 14 15 17 18 18 16 14 12 11 10 10 9 9 9 10 10 11 11 11 11 12 12 12 12 12 13 13 14
19 18 17 15 13 11 10 9 8 6 5 5 5 7 8 8 8 8 8 8 8 9 10 10 10 11 11 12 13 14 15 16 15 15 15 16 16 16 14 13 12 11 10 10 11 11 12 12 13 13 13 12 11 11 11 11 11 11 12 14 16 17 17 15 12 10 10 10 11 11 11 10 10 10 10 10 10 10 11 11 12 12 13 13 14 15
17 16 14 12 10 9 8 8 7 6 6 6 7 8 9 10 10 10 9 9 9 10 10 11 12 12 13 14 15 17 17 17 17 16 16 15 15 16 15 14 13 12 12 11 11 12 12 12 12 11 11 11 12 12 12 12 12 12 12 13 13 14 14 12 11 10 11 11 12 12 11 11 11 10 10 10 10 11 11 12 12 12 13 14 15 16
15 13 11 9 8 8 8 8 8 8 8 8 8 9 10 11 11 11 10 10 10 11 11 12 13 15 16 17 17 18 18 17 16 15 14 14 14 14 15 14 13 12 12 12 12 12 12 12 11 11 11 12 12 13 12 12 12 13 13 13 13 12 10 10 10 11 12 12 13 12 12 11 11 11 11 11 11 12 13 13 13 12 13 14 15 16
12 11 10 8 8 8 8 9 9 9 9 8 8 9 9 10 11 11 10 11 11 12 13 14 15 16 17 17 16 15 15 14 14 13 13 12 12 12 13 13 13 12 12 12 11 11 12 12 13 13 13 12 13 13 13 13 13 13 13 13 12 10 9 9 10 11 12 12 12 12 12 12 12 13 13 13 13 13 14 14 14 13 13 14 15 16
11 11 10 9 9 9 9 9 9 9 9 9 9 8 8 8 9 9 10 11 12 13 14 14 14 13 13 12 11 11 11 11 11 11 10 9 9 9 10 11 12 12 11 11 11 11 12 12 13 13 13 13 14 14 14 14 13 13 13 12 12 12 12 12 11 11 11 11 12 12 13 13 13 13 14 14 14 14 14 14 15 15 15 15 16 16
12 12 11 11 10 10 10 10 10 10 10 10 9 8 7 7 7 8 8 9 10 11 11 11 10 10 10 10 9 9 8 8 8 8 7 7 7 8 9 10 10 11 11 11 12 12 12 12 12 13 13 13 13 14 14 14 14 13 13 13 13 14 14 12 10 9 10 11 13 14 14 13 13 14 14 14 15 15 15 15 16 16 16 16 16 16
12 13 13 12 12 12 11 11 11 11 10 10 9 8 7 7 7 7 6 7 7 7 7 8 9 10 11 12 10 8 6 5 5 5 6 6 7 7 8 9 9 10 11 12 11 11 12 12 12 13 13 13 13 14 15 15 14 14 13 13 13 12 11 10 9 9 9 11 12 12 13 13 14 14 15 15 16 16 17 17 17 17 17 16 16 16
13 13 14 14 14 13 13 12 12 11 10 9 9 8 8 7 6 6 6 7 7 7 8 8 9 9 9 8 8 7 6 5 5 4 5 6 6 7 7 8 8 9 10 12 12 11 11 11 12 12 12 12 13 14 15 15 15 15 14 13 13 12 12 12 12 12 12 12 12 12 12 13 14 15 16 16 17 17 17 17 17 17 17 16 16 16
14 15 15 15 14 13 13 12 11 10 9 8 8 8 7 7 6 6 6 7 7 8 8 8 7 7 7 6 6 6 6 6 5 5 5 5 5 6 7 8 8 9 10 12 12 13 12 12 12 12 12 12 13 14 15 15 15 15 15 14 13 14 15 15 15 14 13 13 13 13 13 14 15 15 15 15 15 15 15 15 16 16 17 16 17 17
15 15 15 14 13 12 11 10 9 8 8 8 8 7 7 7 7 7 7 7 7 8 8 7 7 6 6 6 6 6 6 6 6 6 6 5 4 5 6 7 8 10 11 12 13 13 14 14 13 13 12 13 14 15 16 15 15 15 15 14 14 14 15 15 15 14 14 14 14 14 14 14 14 14 14 14 15 15 15 15 15 15 16 16 17 18
14 14 14 13 12 11 10 10 9 8 7 7 7 7 7 7 7 7 8 8 8 8 8 7 7 7 7 7 7 7 7 7 7 6 6 6 6 5 6 6 7 9 10 11 12 13 14 15 15 15 14 14 14 15 15 15 15 15 15 15 14 14 15 15 15 14 14 14 14 15 15 15 14 14 14 15 16 16 16 16 15 15 16 16 16 17
13 13 13 12 11 10 10 9 8 7 7 7 8 8 7 7 7 8 8 8 8 8 7 7 7 7 7 8 8 8 7 7 7 7 7 8 8 8 7 8 8 9 10 11 12 13 14 16 16 17 16 16 15 15 16 15 15 14 14 14 14 14 15 15 15 15 14 15 16 17 17 15 14 14 15 16 17 18 18 17 16 16 16 16 16 17
12 12 11 10 9 9 8 8 8 7 7 7 7 8 8 8 8 8 8 8 8 9 8 8 7 7 8 8 8 8 8 8 8 8 8 8 9 9 9 9 10 10 11 12 13 13 14 15 16 17 17 18 18 17 17 16 15 15 14 14 14 14 15 15 15 15 14 15 17 18 18 17 16 16 16 16 18 19 19 19 18 17 16 16 16 17
12 11 11 11 11 11 10 9 9 8 8 8 8 8 8 8 8 8 8 8 9 9 9 8 8 8 8 8 8 7 7 7 8 8 8 8 8 8 8 9 9 9 9 10 10 10 11 12 13 14 15 17 18 18 18 17 16 15 14 14 14 14 15 15 15 15 15 15 16 18 18 17 17 16 16 16 18 19 20 20 19 18 16 15 15 16
12 11 12 12 12 12 12 11 10 9 9 8 8 8 8 8 8 8 8 8 8 9 9 9 9 8 8 8 8 8 8 8 8 8 8 8 8 8 8 8 8 8 8 8 8 8 8 8 9 10 12 13 15 16 17 17 15 14 14 14 14 14 14 15 16 16 16 16 17 17 18 18 17 16 15 15 16 18 20 20 19 18 16 15 14 15
Wind_Direction
2 359 356 359 13 25 28 34 31 17 334 303 294 290 285 279 274 271 269 267 266 265 268 272 277 282 285 286 285 282 276 272 269 269 273 279 284 284 281 276 275 278 284 289 291 291 291 288 286 286 287 291 294 296 299 299 294 289 285 283 282 280 278 276 274 272 271 273 275 278 281 284 285 286 286 285 283 281 280 279 278 277 278 279 281 282
16 12 10 15 21 25 23 29 29 21 352 315 300 296 294 293 289 284 282 282 282 283 286 290 291 290 288 285 281 276 272 270 270 273 277 279 275 269 265 264 269 276 283 285 287 288 289 292 295 296 299 301 301 298 297 294 292 289 288 286 285 284 281 277 274 273 273 276 280 282 284 283 281 281 282 282 281 281 281 280 279 278 278 276 276 277
22 24 24 27 27 25 21 23 26 24 13 329 302 293 291 289 288 286 286 286 288 291 295 297 298 297 292 285 281 277 273 273 273 275 276 271 266 260 259 262 269 276 281 284 286 288 290 292 292 293 294 292 292 292 292 291 290 289 288 286 284 284 283 280 277 275 275 274 274 275 276 275 275 275 277 277 278 279 281 281 280 279 275 271 269 269
22 26 27 30 32 30 26 24 24 24 13 332 292 281 278 279 280 280 281 284 289 294 298 301 305 306 302 296 290 285 279 274 270 267 267 261 259 259 263 269 275 279 279 283 288 294 296 297 297 298 299 298 298 298 297 295 292 290 288 286 284 282 280 277 273 271 270 269 268 269 270 270 272 275 278 278 277 279 280 280 281 279 274 271 268 265
31 30 30 32 34 34 33 27 26 27 27 14 296 274 274 276 279 281 284 289 299 311 321 326 328 327 323 317 307 294 272 241 228 242 252 253 258 267 273 279 282 284 284 282 289 296 301 305 306 306 307 307 306 304 301 298 294 291 289 287 285 281 277 272 267 265 266 265 265 267 269 271 273 278 281 280 279 279 278 278 278 276 274 273 271 268
43 37 37 37 38 37 35 29 31 42 57 67 72 69 45 359 341 339 351 2 8 9 5 360 355 350 345 337 323 295 242 212 211 221 235 242 250 263 277 284 287 294 302 295 296 304 310 312 311 308 307 307 306 303 299 296 293 291 287 284 283 280 276 271 267 265 264 264 265 267 269 272 274 276 279 278 278 278 277 277 276 274 272 271 269 268
54 48 44 45 45 43 39 37 41 53 65 65 65 65 64 58 55 51 50 46 43 37 32 24 19 17 15 10 360 321 236 220 220 226 236 239 241 243 246 255 261 272 293 298 304 308 307 306 304 302 300 299 297 294 291 288 286 283 279 276 275 274 273 270 268 267 266 266 267 269 271 273 275 276 276 277 276 275 274 273 273 271 269 267 265 264
73 65 57 54 52 48 47 46 49 58 66 64 61 59 58 57 55 55 55 54 52 48 45 43 40 39 38 36 34 16 281 256 258 260 261 258 254 248 244 245 247 254 272 287 296 299 298 297 295 295 293 291 288 285 283 280 278 274 271 268 266 266 265 265 266 266 267 268 269 271 272 273 274 274 275 275 274 273 272 270 269 268 267 266 265 264
92 85 77 68 61 57 53 49 50 55 61 62 60 55 51 48 47 48 47 46 45 42 40 34 28 19 3 347 330 308 290 282 280 280 278 276 271 266 261 259 260 264 273 282 289 293 295 296 297 296 293 290 286 282 279 276 272 269 266 264 262 262 262 263 264 265 266 268 269 271 272 273 274 274 274 273 272 270 268 267 266 266 266 265 265 263
101 98 94 86 76 67 61 53 49 52 55 56 55 50 44 38 36 35 34 30 25 21 15 7 356 339 316 305 298 292 286 282 279 279 279 279 278 276 275 274 275 277 281 285 290 293 297 299 300 299 296 292 287 283 277 272 268 265 263 262 261 261 262 262 263 264 265 267 269 270 272 273 274 273 272 270 268 266 264 263 263 262 263 262 263 263
103 101 99 95 88 79 75 66 56 52 50 47 46 45 42 38 34 31 31 32 24 11 360 349 339 328 316 307 299 293 289 286 283 281 280 280 281 281 281 282 283 284 285 288 291 294 297 299 300 300 298 294 289 284 279 274 269 265 263 262 261 261 261 261 263 264 266 268 270 271 272 273 272 271 269 266 264 262 261 260 259 259 259 260 262 262
111 108 102 102 95 88 81 73 63 53 47 48 49 48 45 44 40 36 34 35 31 21 13 360 346 334 325 319 311 303 296 291 287 284 282 281 281 281 281 282 283 284 286 288 290 292 295 297 298 298 296 292 288 284 281 278 274 271 268 266 264 263 263 263 264 266 268 269 270 271 271 270 268 266 264 262 261 260 259 258 258 258 259 260 261 261
127 126 121 115 107 97 88 82 74 66 64 65 64 60 51 49 44 38 33 31 24 16 10 1 349 337 324 317 311 304 297 291 286 283 280 279 278 278 279 281 282 284 286 288 289 291 294 297 297 296 292 288 284 282 281 280 279 277 275 273 270 269 267 267 267 268 269 269 269 268 267 265 263 261 259 258 257 256 257 258 259 260 260 261 262 262
128 128 123 111 102 96 91 88 83 77 70 67 66 62 56 50 42 34 29 23 12 1 353 347 341 332 320 313 306 300 293 287 282 278 276 275 277 279 281 283 284 286 288 290 292 295 298 299 297 293 288 282 279 278 278 279 280 280 279 278 277 275 273 272 271 270 269 267 266 264 262 260 258 257 256 256 256 256 257 258 260 261 261 262 262 263
113 114 106 98 93 90 87 84 80 75 69 63 58 53 48 41 32 24 18 10 359 348 340 337 332 326 316 309 304 299 292 286 282 279 276 274 277 281 285 288 289 290 291 294 296 298 300 299 295 289 283 278 275 274 275 276 277 279 280 281 281 279 276 274 272 270 267 265 262 260 258 256 255 254 254 254 255 256 257 259 260 261 262 263 264 265
100 103 101 99 95 89 83 78 74 71 64 56 48 41 36 28 17 6 360 354 348 344 344 342 336 326 313 308 306 303 298 295 293 290 287 283 282 284 289 293 295 295 296 298 300 302 302 298 291 284 278 274 272 271 271 271 274 276 278 279 278 276 274 272 269 267 264 262 259 257 256 254 254 253 254 254 255 257 258 259 260 262 263 264 265 265
88 94 99 102 99 90 76 68 64 60 50 41 32 24 16 8 2 357 354 349 347 347 346 343 337 324 312 308 309 308 306 305 303 300 298 295 292 290 292 296 299 300 300 302 304 305 304 298 289 281 275 271 268 266 265 266 268 272 275 276 274 271 269 268 266 264 263 261 258 257 255 255 254 254 254 255 257 257 259 260 262 263 264 265 265 266
78 82 92 101 100 87 67 58 50 41 32 28 22 14 7 1 358 356 354 352 352 350 344 336 326 312 303 302 304 307 306 306 307 307 306 302 299 298 299 301 302 302 303 305 308 310 308 300 292 283 276 271 266 262 260 260 263 268 271 271 270 269 268 266 264 262 261 260 258 257 256 255 255 255 256 256 257 258 260 261 263 264 264 265 265 266
57 56 78 96 93 73 58 53 47 37 28 22 17 12 7 1 357 356 354 352 350 346 340 331 317 303 295 292 297 301 304 305 308 310 309 304 302 304 307 308 307 305 305 308 311 313 311 303 295 287 280 273 268 263 261 260 260 263 266 267 267 266 266 266 264 262 260 258 256 256 256 256 256 256 257 257 258 259 260 262 263 263 264 265 265 266
4 346 7 52 67 66 56 41 28 21 16 8 2 359 359 355 354 352 349 345 341 335 329 322 310 299 294 292 296 302 305 307 309 310 306 302 301 305 310 311 308 306 306 308 312 315 313 307 300 292 285 278 273 269 266 263 262 262 263 264 265 265 264 263 262 262 261 259 258 256 256 256 257 257 257 258 259 260 261 262 262 263 264 265 266 267
330 306 306 316 17 80 59 24 5 359 355 350 348 346 344 343 342 340 334 330 326 321 317 311 302 296 296 296 299 302 306 308 309 308 305 302 301 304 310 312 311 308 308 310 314 318 315 310 304 298 292 286 281 275 271 267 264 263 263 263 264 263 262 261 260 259 259 258 258 258 258 258 258 259 259 259 260 261 261 262 263 263 265 267 268 269
317 296 298 294 277 91 36 3 350 342 336 336 333 331 330 329 327 323 319 315 312 307 303 299 297 297 298 298 299 301 304 305 305 304 304 302 300 303 311 315 314 311 310 312 318 322 318 313 308 305 300 294 287 280 273 269 265 264 263 263 263 263 263 262 260 259 258 258 258 258 258 258 258 259 259 260 260 260 261 262 263 265 267 268 270 270
292 284 286 273 254 239 294 328 327 324 321 321 318 317 317 316 313 310 307 303 299 296 296 296 297 296 295 295 296 297 297 298 299 300 301 298 297 303 312 316 316 312 310 315 321 323 319 316 314 312 307 299 288 279 273 269 267 266 267 267 266 266 266 265 263 262 260 259 259 259 259 259 259 259 259 259 259 260 261 263 265 267 269 271 271 272
255 252 251 249 246 243 257 288 304 309 312 313 313 312 311 309 306 303 299 296 295 294 293 294 294 293 292 292 292 291 290 290 293 295 295 292 294 301 309 313 313 310 308 315 320 321 318 318 319 319 313 301 286 275 269 267 268 270 274 277 278 276 275 273 270 268 266 264 263 261 260 260 259 258 258 258 259 260 262 265 268 270 272 272 272 272
232 231 234 238 243 247 257 273 292 306 314 317 316 312 309 307 303 299 297 296 295 293 293 292 291 290 290 290 288 286 286 287 289 290 288 290 294 299 304 308 310 309 308 314 318 319 319 322 325 326 319 301 282 271 265 263 265 271 281 282 281 279 277 276 273 270 266 263 261 259 258 257 256 255 255 256 259 263 266 269 271 273 274 273 273 272
203 213 222 234 245 258 268 276 287 299 308 314 315 313 310 307 304 301 299 297 295 294 293 291 288 287 288 289 288 285 286 287 288 288 286 290 295 299 302 308 311 312 312 314 316 318 321 323 326 328 321 298 275 266 259 252 250 254 265 262 257 254 255 257 255 252 251 251 251 252 252 252 253 255 258 260 263 267 270 272 274 275 275 274 273 272
180 194 208 226 239 251 261 267 272 278 285 293 302 308 309 306 304 302 298 295 294 292 287 285 285 286 288 287 285 284 286 287 287 287 288 290 292 294 299 307 313 316 316 315 315 317 320 321 323 323 312 283 261 252 243 237 239 249 260 262 260 255 251 248 246 243 243 246 249 252 253 256 258 260 262 265 268 270 272 274 275 275 275 275 274 272
225 229 237 249 258 265 272 275 277 279 282 284 288 295 300 300 298 292 287 290 292 288 279 276 278 282 285 284 284 285 286 284 284 286 289 289 285 286 296 307 314 317 319 316 314 315 318 322 324 320 299 263 239 230 230 244 261 271 275 276 273 268 262 258 254 251 251 251 253 255 258 260 263 265 267 268 271 273 274 275 276 276 275 275 273 271
253 259 266 273 278 282 285 286 287 288 290 292 293 294 294 292 288 284 284 288 288 280 270 268 269 273 279 283 287 287 285 280 281 285 288 286 280 284 298 307 313 318 322 320 317 316 317 324 328 324 292 251 235 238 256 274 286 290 289 286 282 276 271 266 263 260 259 257 257 258 261 263 265 267 270 271 272 273 273 275 276 277 276 274 272 270
269 275 281 286 289 291 293 295 296 298 300 301 301 298 294 290 285 283 284 283 278 270 262 262 265 268 274 284 290 290 283 278 281 288 291 285 282 289 301 306 311 317 325 326 324 319 316 322 326 326 301 271 262 265 275 284 290 294 294 291 285 280 274 270 267 264 263 262 262 262 263 264 266 267 269 270 271 271 271 272 274 275 275 273 271 269
286 289 292 293 294 296 297 299 302 303 304 304 302 298 293 288 283 278 275 271 268 264 261 261 262 264 266 275 282 286 283 289 292 296 300 293 288 291 299 302 306 312 321 327 327 321 316 318 319 318 309 300 294 291 291 295 298 300 300 298 292 283 276 271 268 266 265 264 264 264 264 264 266 266 267 268 268 268 268 269 270 271 272 271 271 270
293 294 294 295 297 298 300 301 304 305 306 305 301 296 290 282 275 269 264 262 261 261 262 263 264 264 259 255 254 261 274 290 294 296 298 293 288 289 294 297 300 305 310 312 307 301 301 305 307 306 306 303 301 301 303 306 310 312 311 308 303 296 288 282 277 274 271 268 266 264 264 264 265 265 265 266 265 265 265 265 265 266 269 270 271 271
291 292 295 297 300 302 304 306 307 309 309 307 301 292 282 272 264 259 257 256 256 257 258 260 262 262 257 251 251 258 268 279 286 290 291 288 286 287 291 293 296 299 302 300 293 286 281 287 295 300 302 301 300 302 305 310 313 315 315 312 307 304 302 300 296 291 284 277 271 267 265 264 264 264 264 264 263 262 262 261 260 261 264 268 270 272
291 294 298 301 303 305 307 309 312 313 313 309 298 281 263 255 251 250 250 252 254 255 254 256 258 261 261 256 257 260 264 266 272 278 281 283 284 286 289 291 292 295 297 296 293 288 283 284 290 297 301 301 300 299 300 305 307 308 307 306 305 305 306 307 307 303 296 288 280 273 268 266 264 263 262 262 261 260 260 258 258 258 261 265 269 272
295 297 300 303 305 306 308 311 315 316 313 302 278 253 239 237 240 243 248 252 257 260 262 262 263 265 267 268 268 268 267 265 265 268 273 278 282 285 287 286 287 290 292 292 292 292 290 288 290 294 299 301 301 299 298 300 301 301 301 301 302 304 306 309 309 307 302 295 289 282 278 274 270 267 265 263 262 260 259 258 259 261 264 264 266 269
295 298 300 303 305 307 310 313 315 315 303 278 250 233 228 231 237 244 251 256 262 267 271 272 272 272 272 273 274 274 275 274 272 271 272 275 279 281 282 281 282 284 286 286 287 288 289 290 291 293 294 296 298 299 300 301 302 301 300 300 302 304 306 309 309 308 305 300 297 296 293 289 283 278 273 269 266 264 262 262 262 263 264 264 263 264
296 299 301 303 305 307 310 312 313 307 289 262 245 237 233 234 239 246 252 258 262 267 271 275 276 276 276 275 275 277 279 279 279 277 277 276 276 276 275 276 277 278 278 280 283 286 288 290 292 293 291 290 291 296 301 304 305 303 300 301 302 304 307 310 311 309 305 302 301 302 303 301 297 291 285 279 275 272 269 266 265 264 264 263 261 261
297 300 302 303 304 305 308 308 306 301 289 271 258 250 246 244 245 248 253 257 261 264 266 268 271 272 273 274 275 277 279 281 282 281 279 277 275 273 271 272 273 273 272 273 277 281 285 287 290 291 291 289 288 290 296 301 304 303 301 301 301 301 302 306 308 307 304 302 303 304 305 305 303 299 295 292 288 285 281 278 275 273 271 270 267 263
298 300 302 302 302 302 303 302 302 301 298 290 279 268 260 253 251 251 253 256 259 262 265 266 268 269 271 273 275 277 279 280 281 280 278 274 271 269 268 269 270 272 272 272 273 275 277 278 280 283 287 290 291 292 295 297 299 301 302 303 301 298 294 295 298 299 300 301 302 302 303 304 302 300 298 296 294 292 291 290 288 286 285 283 279 273
298 299 300 299 299 298 299 299 301 303 304 302 296 284 272 261 255 253 254 256 259 261 264 267 269 271 273 274 275 275 276 276 276 275 272 269 266 265 266 268 270 272 274 273 272 270 269 270 272 276 279 284 289 292 294 294 295 298 302 303 301 298 294 292 291 291 293 295 297 298 299 301 301 300 299 298 297 295 294 293 292 292 291 289 286 284
296 297 297 297 297 296 297 298 300 303 306 307 305 297 282 269 261 258 259 262 264 265 268 272 276 276 275 273 271 270 269 269 269 268 267 265 263 262 263 266 269 271 272 272 269 267 266 266 270 273 276 279 284 287 289 290 291 294 295 294 292 293 293 291 287 284 285 287 291 294 296 296 296 297 298 299 297 296 294 293 292 292 292 291 286 283
294 295 296 297 297 296 295 296 297 298 300 301 299 293 282 274 270 270 271 272 274 278 282 288 292 295 293 285 276 269 266 265 265 265 265 264 262 261 262 264 266 269 269 269 268 266 265 266 268 271 274 278 282 285 287 287 289 289 288 287 290 294 295 291 285 282 284 287 291 293 293 292 292 294 296 296 296 295 293 292 291 291 290 287 284 280
292 293 295 295 295 294 293 292 291 289 288 287 284 281 276 274 271 270 270 273 277 283 289 297 302 303 302 298 295 291 285 275 270 270 271 269 267 265 264 265 266 268 268 267 266 266 266 266 266 268 272 275 278 281 284 286 287 286 284 283 287 291 293 290 289 288 287 287 288 289 290 291 294 296 297 295 294 293 293 292 291 289 286 283 278 275
292 292 291 291 291 290 289 287 286 284 281 277 274 272 270 268 266 266 267 270 275 281 289 296 301 300 296 291 293 298 301 299 293 285 279 276 276 275 275 274 273 270 268 265 263 264 268 268 267 268 271 273 274 276 279 282 284 285 283 282 281 280 279 283 288 290 288 287 285 285 287 290 294 297 296 294 292 291 290 288 287 285 284 281 277 275
289 288 288 287 287 286 285 284 282 280 275 272 269 267 265 263 262 262 265 270 276 282 291 298 299 293 285 282 283 285 289 289 293 296 292 283 280 280 282 283 282 279 275 270 266 264 265 266 269 272 275 274 272 272 274 278 281 283 283 282 280 278 277 280 283 285 285 285 285 286 288 292 295 295 293 290 288 286 284 282 282 281 281 278 277 276
286 286 286 286 285 284 282 281 278 274 270 268 267 265 263 263 262 263 265 269 273 279 287 290 284 275 274 279 284 288 289 289 292 299 304 303 295 285 284 283 283 283 281 278 275 271 268 266 268 272 275 275 274 273 272 273 276 280 281 283 283 283 282 282 282 282 282 283 285 288 292 295 295 293 289 288 288 286 283 281 279 278 279 277 276 276
286 286 286 286 284 281 278 276 274 272 270 269 267 266 265 263 263 265 267 269 272 277 282 279 271 267 271 276 281 284 286 288 289 293 298 305 307 302 292 288 286 285 285 284 281 277 274 272 271 271 271 272 273 274 273 272 272 275 278 282 285 285 285 284 283 283 283 283 284 288 294 297 295 291 288 290 290 288 286 283 280 278 276 275 275 274
290 290 289 287 285 281 277 274 271 269 267 267 267 267 265 263 263 265 267 268 268 269 270 269 269 270 272 274 275 276 277 279 282 285 288 296 304 309 307 302 298 295 292 291 288 284 280 278 276 272 266 264 265 270 272 272 271 272 275 279 282 283 283 283 284 285 286 285 287 291 293 292 290 289 291 293 292 291 289 286 284 281 278 277 275 273
291 290 289 285 280 276 272 271 269 266 264 264 264 264 264 261 258 257 261 262 263 264 265 267 269 270 271 271 271 272 273 275 277 279 283 290 299 306 306 305 304 303 299 297 293 290 287 283 277 271 265 259 258 261 267 269 271 272 273 274 276 277 279 282 284 286 286 287 289 293 294 290 287 287 289 290 290 290 290 289 287 285 281 278 274 272
289 290 288 282 276 272 269 268 266 263 261 261 261 260 261 259 256 254 255 258 260 261 261 261 262 264 266 268 269 271 272 274 276 279 282 288 295 298 299 300 300 298 296 296 292 289 289 286 281 274 267 261 257 256 259 263 268 271 271 271 271 272 275 278 281 285 287 288 289 291 292 289 287 285 284 284 286 288 289 289 288 286 284 280 275 273
287 289 288 284 279 274 270 267 263 261 258 257 257 257 257 257 255 255 254 255 257 258 258 257 257 257 261 264 268 269 270 271 274 277 281 287 292 293 293 294 295 295 296 295 295 294 294 293 290 284 277 266 258 255 256 258 264 268 269 270 271 271 272 276 280 283 286 287 288 289 288 288 286 283 279 278 281 285 287 288 287 287 287 284 281 278